2015-10-24 00:06:12 r, 17.30m,0000000011Hz,0000043340c,0000000.094s, 022.8C,00002195
2015-10-24 00:16:12 r, 17.95m,0000000006Hz,0000078667c,0000000.171s, 022.5C,00002195
2015-10-24 00:26:14 r, 17.94m,0000000006Hz,0000077662c,0000000.169s, 022.5C,00002195
2015-10-24 00:36:12 r, 18.23m,0000000004Hz,0000101770c,0000000.221s, 022.5C,00002195
2015-10-24 00:46:12 r, 18.30m,0000000004Hz,0000107526c,0000000.233s, 022.2C,00002195
2015-10-24 00:56:12 r, 18.32m,0000000004Hz,0000110340c,0000000.239s, 022.2C,00002195
2015-10-24 01:06:12 r, 18.35m,0000000004Hz,0000113503c,0000000.246s, 022.2C,00002195
2015-10-24 01:16:14 r, 18.38m,0000000004Hz,0000115870c,0000000.251s, 021.9C,00002195
2015-10-24 01:26:12 r, 18.38m,0000000004Hz,0000116138c,0000000.252s, 021.9C,00002195
2015-10-24 01:36:12 r, 18.39m,0000000004Hz,0000117132c,0000000.254s, 021.9C,00002195
2015-10-24 01:46:12 r, 18.40m,0000000004Hz,0000118696c,0000000.258s, 021.9C,00002195
2015-10-24 01:56:13 r, 18.43m,0000000004Hz,0000121696c,0000000.264s, 021.5C,00002195
2015-10-24 02:06:12 r, 18.46m,0000000004Hz,0000124774c,0000000.271s, 021.5C,00002195
2015-10-24 02:16:13 r, 18.46m,0000000004Hz,0000125849c,0000000.273s, 021.5C,00002195
2015-10-24 02:26:12 r, 18.49m,0000000003Hz,0000128538c,0000000.279s, 021.2C,00002195
2015-10-24 02:36:12 r, 18.49m,0000000004Hz,0000128526c,0000000.279s, 021.2C,00002195
2015-10-24 02:46:12 r, 18.51m,0000000003Hz,0000131370c,0000000.285s, 021.2C,00002195
2015-10-24 02:56:12 r, 18.53m,0000000004Hz,0000133422c,0000000.290s, 021.2C,00002195
2015-10-24 03:06:12 r, 18.54m,0000000004Hz,0000136246c,0000000.296s, 020.9C,00002195
2015-10-24 03:16:14 r, 18.55m,0000000004Hz,0000138228c,0000000.300s, 020.9C,00002195
2015-10-24 03:26:12 r, 18.59m,0000000003Hz,0000143026c,0000000.310s, 020.9C,00002195
2015-10-24 03:36:12 r, 18.62m,0000000003Hz,0000146856c,0000000.319s, 020.6C,00002195
2015-10-24 03:46:12 r, 18.65m,0000000003Hz,0000150767c,0000000.327s, 020.6C,00002195
2015-10-24 03:56:13 r, 18.70m,0000000003Hz,0000158304c,0000000.344s, 020.6C,00002195
2015-10-24 04:06:12 r, 18.74m,0000000003Hz,0000163231c,0000000.354s, 020.6C,00002195
2015-10-24 04:16:12 r, 18.78m,0000000002Hz,0000169956c,0000000.369s, 020.6C,00002195
2015-10-24 04:26:12 r, 18.78m,0000000003Hz,0000170838c,0000000.371s, 020.3C,00002195
2015-10-24 04:36:12 r, 18.78m,0000000002Hz,0000169958c,0000000.369s, 020.3C,00002195
2015-10-24 04:46:12 r, 18.78m,0000000003Hz,0000169904c,0000000.369s, 019.9C,00002195
2015-10-24 04:56:12 r, 18.78m,0000000002Hz,0000169978c,0000000.369s, 019.9C,00002195
2015-10-24 05:06:12 r, 18.78m,0000000002Hz,0000170856c,0000000.371s, 019.9C,00002195
2015-10-24 05:16:14 r, 18.78m,0000000003Hz,0000169133c,0000000.367s, 019.9C,00002195
2015-10-24 05:26:13 r, 18.76m,0000000003Hz,0000166393c,0000000.361s, 019.9C,00002195
2015-10-24 05:36:12 r, 18.75m,0000000002Hz,0000165141c,0000000.358s, 019.6C,00002195
2015-10-24 05:46:12 r, 18.76m,0000000002Hz,0000166033c,0000000.360s, 019.6C,00002195
2015-10-24 05:56:13 r, 18.75m,0000000003Hz,0000164287c,0000000.357s, 019.6C,00002195
2015-10-24 06:06:12 r, 18.75m,0000000002Hz,0000164051c,0000000.356s, 019.3C,00002195
2015-10-24 06:16:13 r, 18.74m,0000000003Hz,0000163113c,0000000.354s, 019.3C,00002195
2015-10-24 06:26:12 r, 18.71m,0000000003Hz,0000159308c,0000000.346s, 019.3C,00002195
2015-10-24 06:36:12 r, 18.69m,0000000003Hz,0000156333c,0000000.339s, 019.0C,00002195
2015-10-24 06:46:13 r, 18.58m,0000000003Hz,0000141112c,0000000.306s, 018.6C,00002195
2015-10-24 06:56:12 r, 18.26m,0000000004Hz,0000105285c,0000000.228s, 018.6C,00002195
2015-10-24 07:06:12 r, 17.62m,0000000007Hz,0000058261c,0000000.126s, 018.6C,00002195
2015-10-24 07:16:12 r, 16.15m,0000000031Hz,0000015084c,0000000.033s, 018.6C,00002195
2015-10-24 07:26:14 r, 14.41m,0000000154Hz,0000000000c,0000000.000s, 019.0C,00002195
2015-10-24 07:36:12 r, 12.34m,0000001032Hz,0000000000c,0000000.000s, 019.0C,00002195
2015-10-24 07:46:13 r, 10.29m,0000006790Hz,0000000000c,0000000.000s, 018.6C,00002195
2015-10-24 07:56:13 r, 08.61m,0000031916Hz,0000000000c,0000000.000s, 019.0C,00002195
2015-10-24 08:06:12 r, 07.44m,0000094568Hz,0000000000c,0000000.000s, 019.0C,00002195
2015-10-24 08:16:12 r, 06.69m,0000186536Hz,0000000000c,0000000.000s, 019.0C,00002195
2015-10-24 08:26:13 r, 06.22m,0000291679Hz,0000000000c,0000000.000s, 019.0C,00002195
2015-10-24 08:36:12 r, 00.00m,0000403391Hz,0000000000c,0000000.000s, 019.0C,00002195
2015-10-24 08:46:12 r, 00.00m,0000505642Hz,0000000000c,0000000.000s, 019.0C,00002195
2015-10-24 08:56:13 r, 00.00m,0000563422Hz,0000000000c,0000000.000s, 019.3C,00002195
2015-10-24 09:06:12 r, 00.00m,0000563417Hz,0000000000c,0000000.000s, 019.3C,00002195
2015-10-24 09:16:12 r, 00.00m,0000563444Hz,0000000000c,0000000.000s, 019.6C,00002195
2015-10-24 09:26:14 r, 00.00m,0000563566Hz,0000000000c,0000000.000s, 020.3C,00002195
2015-10-24 09:36:12 r, 00.00m,0000563589Hz,0000000000c,0000000.000s, 021.2C,00002195
2015-10-24 09:46:12 r, 00.00m,0000563755Hz,0000000000c,0000000.000s, 022.5C,00002195
2015-10-24 09:56:14 r, 00.00m,0000563867Hz,0000000000c,0000000.000s, 023.8C,00002195
2015-10-24 10:06:13 r, 00.00m,0000564005Hz,0000000000c,0000000.000s, 024.4C,00002195
2015-10-24 10:16:12 r, 00.00m,0000564106Hz,0000000000c,0000000.000s, 025.4C,00002195
2015-10-24 10:26:12 r, 00.00m,0000564127Hz,0000000000c,0000000.000s, 026.1C,00002195
2015-10-24 10:36:14 r, 00.00m,0000564273Hz,0000000000c,0000000.000s, 026.4C,00002195
2015-10-24 10:46:12 r, 00.00m,0000564310Hz,0000000000c,0000000.000s, 027.0C,00002195
2015-10-24 10:56:12 r, 00.00m,0000564368Hz,0000000000c,0000000.000s, 027.7C,00002195
2015-10-24 11:06:14 r, 00.00m,0000564366Hz,0000000000c,0000000.000s, 028.0C,00002195
2015-10-24 11:16:12 r, 00.00m,0000564388Hz,0000000000c,0000000.000s, 028.0C,00002195
2015-10-24 11:26:13 r, 00.00m,0000564451Hz,0000000000c,0000000.000s, 028.3C,00002195
2015-10-24 11:36:13 r, 00.00m,0000564530Hz,0000000000c,0000000.000s, 028.3C,00002195
2015-10-24 11:46:12 r, 00.00m,0000564512Hz,0000000000c,0000000.000s, 029.0C,00002195
2015-10-24 11:56:13 r, 00.00m,0000564550Hz,0000000000c,0000000.000s, 029.3C,00002195
2015-10-24 12:06:13 r, 00.00m,0000564581Hz,0000000000c,0000000.000s, 029.6C,00002195
2015-10-24 12:16:12 r, 00.00m,0000564623Hz,0000000000c,0000000.000s, 030.2C,00002195
2015-10-24 12:26:12 r, 00.00m,0000564614Hz,0000000000c,0000000.000s, 030.6C,00002195
2015-10-24 12:36:13 r, 00.00m,0000564683Hz,0000000000c,0000000.000s, 030.9C,00002195
2015-10-24 12:46:13 r, 00.00m,0000564755Hz,0000000000c,0000000.000s, 031.2C,00002195
2015-10-24 12:56:12 r, 00.00m,0000564694Hz,0000000000c,0000000.000s, 031.2C,00002195
2015-10-24 13:06:14 r, 00.00m,0000564736Hz,0000000000c,0000000.000s, 031.5C,00002195
2015-10-24 13:16:12 r, 00.00m,0000564834Hz,0000000000c,0000000.000s, 031.9C,00002195
2015-10-24 13:26:14 r, 00.00m,0000564815Hz,0000000000c,0000000.000s, 031.9C,00002195
2015-10-24 13:36:13 r, 00.00m,0000564868Hz,0000000000c,0000000.000s, 032.2C,00002195
2015-10-24 13:46:12 r, 00.00m,0000564852Hz,0000000000c,0000000.000s, 032.5C,00002195
2015-10-24 13:56:14 r, 00.00m,0000564856Hz,0000000000c,0000000.000s, 032.5C,00002195
2015-10-24 14:06:13 r, 00.00m,0000564797Hz,0000000000c,0000000.000s, 032.8C,00002195
2015-10-24 14:16:12 r, 00.00m,0000564873Hz,0000000000c,0000000.000s, 032.5C,00002195
2015-10-24 14:26:13 r, 00.00m,0000564858Hz,0000000000c,0000000.000s, 032.5C,00002195
2015-10-24 14:36:13 r, 00.00m,0000564868Hz,0000000000c,0000000.000s, 032.8C,00002195
2015-10-24 14:46:12 r, 00.00m,0000565006Hz,0000000000c,0000000.000s, 032.5C,00002195
2015-10-24 14:56:12 r, 00.00m,0000564919Hz,0000000000c,0000000.000s, 032.2C,00002195
2015-10-24 15:06:14 r, 00.00m,0000564722Hz,0000000000c,0000000.000s, 031.9C,00002195
2015-10-24 15:16:12 r, 00.00m,0000564791Hz,0000000000c,0000000.000s, 031.5C,00002195
2015-10-24 15:26:13 r, 00.00m,0000564744Hz,0000000000c,0000000.000s, 031.2C,00002195
2015-10-24 15:36:13 r, 00.00m,0000564744Hz,0000000000c,0000000.000s, 031.2C,00002195
2015-10-24 15:46:12 r, 00.00m,0000564687Hz,0000000000c,0000000.000s, 031.2C,00002195
2015-10-24 15:56:13 r, 00.00m,0000564602Hz,0000000000c,0000000.000s, 030.9C,00002195
2015-10-24 16:06:13 r, 00.00m,0000564452Hz,0000000000c,0000000.000s, 029.3C,00002195
2015-10-24 16:16:12 r, 00.00m,0000564331Hz,0000000000c,0000000.000s, 028.3C,00002195
2015-10-24 16:26:13 r, 00.00m,0000564310Hz,0000000000c,0000000.000s, 027.7C,00002195
2015-10-24 16:36:12 r, 00.00m,0000564255Hz,0000000000c,0000000.000s, 027.7C,00002195
2015-10-24 16:46:12 r, 00.00m,0000564266Hz,0000000000c,0000000.000s, 027.3C,00002195
2015-10-24 16:56:13 r, 00.00m,0000564140Hz,0000000000c,0000000.000s, 027.0C,00002195
2015-10-24 17:06:13 r, 00.00m,0000564204Hz,0000000000c,0000000.000s, 026.4C,00002195
2015-10-24 17:16:12 r, 00.00m,0000564087Hz,0000000000c,0000000.000s, 026.4C,00002195
2015-10-24 17:26:13 r, 00.00m,0000564117Hz,0000000000c,0000000.000s, 026.1C,00002195
2015-10-24 17:36:13 r, 06.32m,0000262619Hz,0000000000c,0000000.000s, 025.7C,00002195
2015-10-24 17:46:12 r, 06.35m,0000257259Hz,0000000000c,0000000.000s, 025.7C,00002195
2015-10-24 17:56:15 r, 00.00m,0000431442Hz,0000000000c,0000000.000s, 025.7C,00002195
2015-10-24 18:06:13 r, 06.25m,0000282315Hz,0000000000c,0000000.000s, 025.7C,00002195
2015-10-24 18:16:12 r, 07.36m,0000101024Hz,0000000000c,0000000.000s, 025.4C,00002195
2015-10-24 18:26:12 r, 08.22m,0000045762Hz,0000000000c,0000000.000s, 025.1C,00002195
2015-10-24 18:36:12 r, 09.48m,0000014394Hz,0000000000c,0000000.000s, 024.8C,00002195
2015-10-24 18:46:12 r, 11.44m,0000002362Hz,0000000000c,0000000.000s, 024.8C,00002195
2015-10-24 18:56:13 r, 13.91m,0000000243Hz,0000000000c,0000000.000s, 024.4C,00002195
2015-10-24 19:06:14 r, 15.92m,0000000039Hz,0000012106c,0000000.026s, 023.8C,00002195
2015-10-24 19:16:12 r, 17.11m,0000000013Hz,0000036491c,0000000.079s, 023.5C,00002195
2015-10-24 19:26:14 r, 17.68m,0000000007Hz,0000061339c,0000000.133s, 023.2C,00002195
2015-10-24 19:36:13 r, 17.99m,0000000006Hz,0000081525c,0000000.177s, 022.8C,00002195
2015-10-24 19:46:12 r, 18.04m,0000000005Hz,0000085306c,0000000.185s, 022.8C,00002195
2015-10-24 19:56:14 r, 17.98m,0000000006Hz,0000080618c,0000000.175s, 022.5C,00002195
2015-10-24 20:06:12 r, 18.07m,0000000005Hz,0000087390c,0000000.190s, 022.5C,00002195
2015-10-24 20:16:13 r, 18.07m,0000000005Hz,0000087462c,0000000.190s, 022.2C,00002195
2015-10-24 20:26:15 r, 15.11m,0000000079Hz,0000005778c,0000000.013s, 022.2C,00002195
2015-10-24 20:36:13 r, 15.72m,0000000046Hz,0000010117c,0000000.022s, 022.2C,00002195
2015-10-24 20:46:12 r, 16.07m,0000000033Hz,0000013933c,0000000.030s, 022.5C,00002195
2015-10-24 20:56:12 r, 15.78m,0000000044Hz,0000010722c,0000000.023s, 022.5C,00002195
2015-10-24 21:06:14 r, 16.09m,0000000034Hz,0000014266c,0000000.031s, 022.5C,00002195
2015-10-24 21:16:12 r, 17.06m,0000000013Hz,0000034711c,0000000.075s, 022.2C,00002195
2015-10-24 21:26:14 r, 16.44m,0000000024Hz,0000019585c,0000000.043s, 021.9C,00002195
2015-10-24 21:36:12 r, 16.52m,0000000022Hz,0000021208c,0000000.046s, 021.9C,00002195
2015-10-24 21:46:12 r, 18.00m,0000000006Hz,0000082256c,0000000.179s, 021.5C,00002195
2015-10-24 21:56:13 r, 18.04m,0000000006Hz,0000085189c,0000000.185s, 021.2C,00002195
2015-10-24 22:06:12 r, 18.03m,0000000006Hz,0000084525c,0000000.183s, 021.2C,00002195
2015-10-24 22:16:12 r, 18.02m,0000000005Hz,0000084356c,0000000.183s, 020.9C,00002195
2015-10-24 22:26:15 r, 18.01m,0000000006Hz,0000083563c,0000000.181s, 020.6C,00002195
2015-10-24 22:36:13 r, 18.01m,0000000005Hz,0000083472c,0000000.181s, 020.6C,00002195
2015-10-24 22:46:12 r, 18.00m,0000000005Hz,0000082870c,0000000.180s, 020.3C,00002195
2015-10-24 22:56:12 r, 18.01m,0000000006Hz,0000083314c,0000000.181s, 020.3C,00002195
2015-10-24 23:06:13 r, 18.01m,0000000005Hz,0000083467c,0000000.181s, 019.9C,00002195
2015-10-24 23:16:12 r, 18.01m,0000000005Hz,0000083515c,0000000.181s, 019.9C,00002195
2015-10-24 23:26:13 r, 18.02m,0000000006Hz,0000084158c,0000000.183s, 019.9C,00002195
2015-10-24 23:36:12 r, 18.03m,0000000005Hz,0000084486c,0000000.183s, 019.6C,00002195
2015-10-24 23:46:12 r, 18.03m,0000000005Hz,0000085401c,0000000.185s, 019.6C,00002195
2015-10-24 23:56:12 r, 18.05m,0000000006Hz,0000086240c,0000000.187s, 019.6C,00002195
